map of DKR home
Great Circle Mapper logo
DKR - Airport
Location
City:  Dakar, Senegal
Name:Dakar-Yoff-Léopold Sédar Senghor International Airport
ICAO / IATA:GOOY / DKR

Details
Type:Airport (Aerodrome, Airfield)
Use:Public/Civil, Military, International (customs port of entry)
Latitude:14°44'23"N (14.739708)
Longitude:17°29'25"W (-17.490224)
Datum:WGS 1984
Elevation:85 ft (26 m)
Runways:2
Longest:11450 × 148 ft (3490 × 45 m), paved

Time
Time Zone:UTC+0
Local Time:

Weather
METAR:GOOY 202200Z 25004KT 180V290 9999 FEW007 28/24 Q1014 NOSIG
TAF:GOOY 201730Z 2018/2124 22008KT 9999 SCT008= TAF GBYD 201730Z 2018/2124 26010KT 9999 SCT013
TEMPO 2118/2124 18010KT 4000 TSRA BKN015 FEW025CB

Related Locations
Nearby:
Farthest:OLJ: 12178 mi / 19599 km
Olpoi [North West Santo], Espíritu Santo Island, SAM, VU

Find:

   beyond  
but within

Other Information
Maps:
NOTAMs:
Links:
Sources:

  
flag of Senegal   

Airport Diagram

Airport diagram for DKR

Airport diagram (OBSOLETE) from NGA

Sectional Chart

Flight Planning
at skyvector.com

Satellite Image

Google Maps Satellite View

 

Copyright © 2004-2014 Karl L. Swartz. All rights reserved.
The Great Circle Mapper name and logo are trademarks of the Great Circle Mapper.
All other trademarks mentioned herein belong to their respective owners.
Please see credits for attibutions and further copyright information.

  Follow gcmap on Facebook Follow gcmap on Twitter

hCard Microformat

Geo Microformat